BEIDOU-3S M2S (C58)

Last updated on Sat Dec 13 2025 00:03:25 GMT+0000 (Coordinated Universal Time)

1 40748U 15037A 25345.92738932 -.00000089 00000+0 00000+0 0 9997 2 40748 55.0397 308.4912 0012344 267.8245 92.0250 1.86228970 70636
UTC large
Height (km)
Speed (km/s)
/
Latitude / Longitude
Inclination (degrees)
Orbital Period (minutes)
Azimuth
Elevation
Range (km)
Doppler Factor

Next 0 passes for location: London (51.5072 / 0.1276)

Sorry there are no passes over London.